Stations météo

réclame
Mon MeteoGroup
Le Havre/Octeville, France (7046): Température de l'air & dewpoint: 20.08.2019 02:00:00 - 26.08.2019 02:00:00 (CEST)Le Havre/Octeville, France (7046): Vitesse du vent & gusts: 20.08.2019 02:00:00 - 26.08.2019 02:00:00 (CEST)Le Havre/Octeville, France (7046): Direction du vent: 20.08.2019 02:00:00 - 26.08.2019 02:00:00 (CEST)Le Havre/Octeville, France (7046): reduced air pressure: 20.08.2019 02:00:00 - 26.08.2019 02:00:00 (CEST)Le Havre/Octeville, France (7046): visibility: 20.08.2019 02:00:00 - 26.08.2019 02:00:00 (CEST)Le Havre/Octeville, France (7046): Quantités de précipitations: 20.08.2019 02:00:00 - 26.08.2019 02:00:00 (CEST)
Date & Time tt [°C] td [°C] ff [km/h] ff [knt] fx [km/h] fx [knt] dd ppp [hPa] vv [km] rr [mm]
26.08.2019 02:00:00 17,1 16,3 9 5 14 7 N 1019,5 9 0,0
26.08.2019 01:00:00 17,0 16,2 5 3 11 6 N 1019,7 7 0,0
26.08.2019 00:00:00 17,1 16,3 9 5 14 8 N 1019,7 8 0,0
25.08.2019 23:00:00 17,2 16,4 7 4 19 11 N 1019,8 9 0,0
25.08.2019 22:00:00 17,5 16,9 16 8 28 15 N 1019,7 8 0,0
25.08.2019 21:00:00 17,4 16,9 13 7 23 12 N 1018,9 2,7 0,0
25.08.2019 20:00:00 18,0 17,4 15 8 21 12 N 1018,5 0,8 0,0
25.08.2019 19:00:00 20,1 17,7 18 10 26 14 N 1018,2 17 0,0
25.08.2019 18:00:00 20,7 17,9 19 10 25 13 NNW 1018,4 17 0,0
25.08.2019 17:00:00 21,7 17,7 18 10 24 13 NNW 1018,3 20 0,0
25.08.2019 16:00:00 21,8 17,2 19 10 27 15 N 1018,4 19 0,0
25.08.2019 15:00:00 21,4 17,4 15 8 26 14 NNW 1018,5 16 0,0
25.08.2019 14:00:00 21,7 17,9 18 10 28 15 NW 1018,4 17 0,0
25.08.2019 13:00:00 25,2 14,6 18 10 24 13 NW 1017,9 51 0,0
25.08.2019 12:00:00 30,0 11,5 4 2 9 5 SW 1017,5 49 0,0
25.08.2019 11:00:00 27,3 12,5 5 3 11 6 SE 1017,7 20 0,0
25.08.2019 10:00:00 24,2 12,5 8 4 12 6 ESE 1017,6 60 0,0
25.08.2019 09:00:00 21,6 11,9 6 3 11 6 ESE 1017,4 49 0,0
25.08.2019 08:00:00 17,7 11,9 7 4 13 7 ESE 1017,2 52 0,0
25.08.2019 07:00:00 17,8 11,8 8 5 12 7 SE 1016,9 47 0,0
25.08.2019 06:00:00 17,8 12,0 9 5 13 7 ESE 1016,8 45 0,0
25.08.2019 05:00:00 18,2 12,0 11 6 13 7 ESE 1016,7 46 0,0
25.08.2019 04:00:00 18,7 11,7 11 6 15 8 ESE 1016,7 52 0,0
25.08.2019 03:00:00 21,0 11,3 10 6 12 6 ESE 1016,5 52 0,0
25.08.2019 02:00:00 20,6 11,5 10 5 11 6 ESE 1016,7 59 0,0
25.08.2019 01:00:00 20,7 12,1 9 5 11 6 E 1016,7 57 0,0
25.08.2019 00:00:00 21,6 12,2 9 5 12 7 ESE 1016,8 55 0,0
24.08.2019 23:00:00 21,8 12,6 9 5 13 7 E 1016,8 45 0,0
24.08.2019 22:00:00 22,5 12,4 10 5 13 7 ESE 1016,8 54 0,0
24.08.2019 21:00:00 24,3 11,9 9 5 13 7 E 1016,6 20 0,0
24.08.2019 20:00:00 27,3 12,1 9 5 14 8 E 1016,4 18 0,0
24.08.2019 19:00:00 28,1 11,2 11 6 15 8 ENE 1016,5 59 0,0
24.08.2019 18:00:00 28,4 10,6 10 6 17 9 NE 1016,9 60 0,0
24.08.2019 17:00:00 27,7 11,3 13 7 21 11 N 1017,3 60 0,0
24.08.2019 16:00:00 27,8 11,4 14 8 23 12 NNW 1017,5 52 0,0
24.08.2019 15:00:00 28,6 12,1 8 4 23 12 NNW 1017,7 53 0,0
24.08.2019 14:00:00 28,2 10,4 10 5 25 13 SSE 1018,1 19 0,0
24.08.2019 13:00:00 27,9 9,7 12 6 19 10 ESE 1018,4 60 0,0
24.08.2019 12:00:00 26,5 11,8 8 5 16 9 ESE 1018,7 60 0,0
24.08.2019 11:00:00 24,8 13,0 8 5 15 8 E 1019,0 60 0,0
24.08.2019 10:00:00 22,4 12,3 10 5 17 9 ESE 1019,1 38 0,0
24.08.2019 09:00:00 18,9 12,2 10 5 12 7 ESE 1019,3 29 0,0
24.08.2019 08:00:00 16,4 11,1 11 6 12 6 E 1019,2 34 0,0
24.08.2019 07:00:00 14,9 10,7 10 5 12 6 ESE 1019,4 35 0,0
24.08.2019 06:00:00 15,0 10,6 10 5 11 6 ESE 1019,5 41 0,0
24.08.2019 05:00:00 15,3 10,5 9 5 13 7 ESE 1020,0 48 0,0
24.08.2019 04:00:00 15,5 10,5 11 6 13 7 E 1020,2 52 0,0
24.08.2019 03:00:00 15,8 10,3 10 5 14 8 E 1020,5 58 0,0
24.08.2019 02:00:00 16,3 10,2 11 6 16 8 E 1020,7 60 0,0
24.08.2019 01:00:00 16,9 9,8 13 7 21 11 E 1020,8 60 0,0
24.08.2019 00:00:00 17,5 8,9 14 8 21 11 E 1021,0 60 0,0
23.08.2019 23:00:00 17,9 7,9 13 7 23 13 E 1021,3 60 0,0
23.08.2019 22:00:00 19,0 7,7 16 9 23 13 E 1021,6 60 0,0
23.08.2019 21:00:00 20,1 9,0 14 7 19 11 E 1021,5 60 0,0
23.08.2019 20:00:00 22,0 9,5 14 8 25 14 ENE 1021,5 58 0,0
23.08.2019 19:00:00 24,2 10,8 16 9 31 17 NE 1021,6 60 0,0
23.08.2019 18:00:00 25,4 11,9 22 12 29 16 NE 1022,0 60 0,0
23.08.2019 17:00:00 25,1 14,2 19 10 29 16 N 1022,4 58 0,0
23.08.2019 16:00:00 23,9 14,9 18 10 26 14 N 1022,8 20 0,0
23.08.2019 15:00:00 23,9 14,3 19 10 29 16 N 1023,3 60 0,0
23.08.2019 14:00:00 24,0 13,5 10 5 20 11 NNW 1024,0 60 0,0
23.08.2019 13:00:00 23,7 10,0 6 3 19 10 ESE 1024,4 60 0,0
23.08.2019 12:00:00 22,3 9,5 12 6 20 11 SE 1024,9 20 0,0
23.08.2019 11:00:00 20,2 11,1 10 5 17 9 ESE 1025,3 53 0,0
23.08.2019 10:00:00 17,9 11,2 10 5 16 9 E 1025,3 19 0,0
23.08.2019 09:00:00 15,0 11,6 9 5 13 7 ESE 1025,5 19 0,0
23.08.2019 08:00:00 12,9 10,8 8 5 11 6 ESE 1025,7 15 0,0
23.08.2019 07:00:00 11,5 9,7 6 3 10 5 E 1025,7 19 0,0
23.08.2019 06:00:00 12,3 10,5 8 5 10 6 E 1025,7 24 0,0
23.08.2019 05:00:00 12,2 10,3 7 4 8 4 ESE 1025,9 31 0,0
23.08.2019 04:00:00 13,1 10,3 4 2 9 5 ESE 1026,2 38 0,0
23.08.2019 03:00:00 12,9 10,6 3 1 6 3 E 1026,4 42 0,0
23.08.2019 02:00:00 14,3 10,7 5 3 10 5 ESE 1026,8 41 0,0
23.08.2019 01:00:00 14,4 11,4 4 2 9 5 ESE 1026,8 37 0,0
23.08.2019 00:00:00 14,3 11,4 5 3 10 5 E 1026,9 38 0,0
22.08.2019 23:00:00 14,0 11,3 8 4 12 7 ENE 1026,8 40 0,0
22.08.2019 22:00:00 14,8 11,0 10 6 13 7 NE 1026,7 56 0,0
22.08.2019 21:00:00 16,5 11,2 11 6 17 9 NNE 1026,2 60 0,0
22.08.2019 20:00:00 19,1 10,1 13 7 21 12 NE 1025,7 57 0,0
22.08.2019 19:00:00 19,7 10,1 17 9 27 15 N 1025,8 60 0,0
22.08.2019 18:00:00 20,3 10,1 20 11 23 13 N 1025,7 60 0,0
22.08.2019 17:00:00 21,0 11,1 17 9 22 12 N 1026,1 54 0,0
22.08.2019 16:00:00 20,8 13,0 16 8 24 13 N 1026,3 46 0,0
22.08.2019 15:00:00 19,8 13,9 18 10 31 17 N 1026,6 20 0,0
22.08.2019 14:00:00 19,9 12,6 16 9 23 12 NNW 1026,8 20 0,0
22.08.2019 13:00:00 19,6 12,1 13 7 16 9 NW 1026,9 20 0,0
22.08.2019 12:00:00 18,7 12,0 10 6 16 9 NW 1027,1 41 0,0
22.08.2019 11:00:00 19,6 12,8 8 4 10 6 NW 1027,0 19 0,0
22.08.2019 10:00:00 18,4 10,2 4 2 10 5 S 1026,8 39 0,0
22.08.2019 09:00:00 15,4 13,6 3 1 6 3 SE 1026,5 17 0,0
22.08.2019 08:00:00 11,5 11,0 3 2 5 3 SSE 1026,4 13 0,0
22.08.2019 07:00:00 10,0 9,4 0 0 5 3 N 1026,1 7 0,0
22.08.2019 06:00:00 10,7 10,2 0 0 3 2 N 1026,0 2,1 0,2
22.08.2019 05:00:00 11,0 10,4 0 0 3 1 N 1026,0 2,0 0,0
22.08.2019 04:00:00 11,6 10,8 0 0 3 2 N 1026,1 0,1 0,0
22.08.2019 03:00:00 12,8 11,9 3 2 5 3 ESE 1026,3 9 0,0
22.08.2019 02:00:00 13,3 11,9 2 1 8 4 ESE 1026,5 11 0,0
22.08.2019 01:00:00 14,4 12,6 6 3 8 4 ESE 1026,8 16 0,0
22.08.2019 00:00:00 13,9 12,1 4 2 10 5 E 1026,8 17 0,0
21.08.2019 23:00:00 14,2 12,2 6 4 12 6 ENE 1027,0 19 0,0
21.08.2019 22:00:00 15,0 12,1 8 4 12 7 ENE 1026,7 31 0,0
21.08.2019 21:00:00 16,1 11,3 9 5 17 9 NE 1026,3 44 0,0
21.08.2019 20:00:00 17,8 11,4 16 8 21 11 N 1026,1 59 0,0
21.08.2019 19:00:00 19,1 10,1 14 8 23 12 N 1026,1 20 0,0
21.08.2019 18:00:00 18,8 13,0 19 10 27 15 NNE 1026,5 60 0,0
21.08.2019 17:00:00 18,8 12,8 19 10 29 16 N 1026,8 51 0,0
21.08.2019 16:00:00 18,6 13,2 19 10 26 14 N 1027,0 20 0,0
21.08.2019 15:00:00 19,2 13,4 15 8 21 12 N 1027,3 20 0,0
21.08.2019 14:00:00 18,6 12,6 9 5 20 11 NNW 1027,5 20 0,0
21.08.2019 13:00:00 19,7 12,0 6 3 18 10 W 1027,9 52 0,0
21.08.2019 12:00:00 18,4 10,7 9 5 18 10 E 1028,3 29 0,0
21.08.2019 11:00:00 17,1 11,6 8 4 13 7 SE 1028,8 20 0,0
21.08.2019 10:00:00 16,1 11,5 8 4 11 6 S 1028,9 20 0,0
21.08.2019 09:00:00 14,2 12,1 4 2 6 3 SE 1028,9 18 0,0
21.08.2019 08:00:00 11,0 9,6 4 2 6 3 SE 1028,7 9 0,0
21.08.2019 07:00:00 11,4 10,3 5 3 7 4 SSE 1028,6 15 0,0
21.08.2019 06:00:00 10,9 9,7 5 3 8 4 SSE 1028,3 20 0,0
21.08.2019 05:00:00 11,3 10,4 5 3 8 5 S 1028,2 19 0,0
21.08.2019 04:00:00 10,1 8,5 0 0 6 3 N 1028,4 41 0,0
21.08.2019 03:00:00 10,5 8,9 0 0 3 2 N 1028,3 41 0,0
21.08.2019 02:00:00 12,2 9,0 0 0 3 2 N 1028,5 45 0,0
21.08.2019 01:00:00 13,7 9,9 0 0 13 7 N 1028,3 56 0,0
21.08.2019 00:00:00 14,2 10,2 9 5 13 7 NNW 1028,4 60 0,0
20.08.2019 23:00:00 14,7 10,1 10 5 16 9 NNW 1028,3 60 0,0
20.08.2019 22:00:00 15,3 10,5 11 6 19 10 NNW 1027,9 60 0,0
20.08.2019 21:00:00 15,8 10,1 12 6 18 10 NW 1027,5 60 0,0
20.08.2019 20:00:00 17,0 10,4 12 7 19 10 NNW 1027,0 57 0,0
20.08.2019 19:00:00 17,8 9,7 13 7 24 13 NNW 1026,6 60 0,0
20.08.2019 18:00:00 18,1 10,5 15 8 23 13 NNW 1026,6 45 0,0
20.08.2019 17:00:00 18,2 11,0 15 8 24 13 NNW 1026,2 20 0,0
20.08.2019 16:00:00 18,6 12,1 14 8 26 14 NW 1025,9 20 0,0
20.08.2019 15:00:00 18,6 11,2 18 10 28 15 NW 1025,8 20 0,0
20.08.2019 14:00:00 18,4 11,7 16 9 31 17 WNW 1025,5 43 0,0
20.08.2019 13:00:00 17,6 11,2 18 10 32 18 WNW 1025,3 20 0,0
20.08.2019 12:00:00 17,8 12,3 19 10 30 16 W 1024,9 20 0,0
20.08.2019 11:00:00 17,7 11,7 20 11 29 15 W 1024,6 20 0,0
20.08.2019 10:00:00 16,7 12,6 18 10 26 14 WSW 1024,2 20 0,0
20.08.2019 09:00:00 16,0 11,6 16 9 27 14 W 1023,7 60 0,0
20.08.2019 08:00:00 15,6 10,8 14 8 23 13 W 1023,1 44 0,0
20.08.2019 07:00:00 15,1 10,9 15 8 26 14 W 1022,6 52 0,0
20.08.2019 06:00:00 15,2 11,0 16 8 27 14 W 1022,0 53 0,0
20.08.2019 05:00:00 15,5 11,5 17 9 27 15 WNW 1021,8 55 0,0
20.08.2019 04:00:00 15,6 11,2 17 9 31 17 W 1021,8 54 0,0
20.08.2019 03:00:00 15,6 11,8 19 11 30 16 W 1022,0 53 0,0
20.08.2019 02:00:00 15,8 11,2 19 10 32 18 W 1022,0 58 0,0

tt = Température de l'air
td = dewpoint
ff = Vitesse du vent
fx = gusts
dd = Direction du vent
ppp = reduced air pressure
vv = visibility
rr = Quantités de précipitations

stations d'obs. à proximité